Location: Conjunto Santa Maria
(19.9513°S, 43.9599°W)
Time: 12:28:03
(UTC+00:00)

GPS 2-17 Rocket1 - Pass Details

Date: 21 January 2021
Orbit: 571 x 658 km, 20.3° (Epoch: 03 March)

Event Time Altitude Azimuth Distance (km) Brightness Sun altitude
Rises 22:32:25 0° 264° (W) 2,903 8.0 -11.9°
Reaches altitude 10° 22:34:49 10° 267° (W) 1,980 6.8 -12.4°
Maximum altitude 22:39:25 68° 349° (N) 654 3.1 -13.4°
Enters shadow 22:42:13 22° 67° (ENE) 1,303 4.1 -13.9°
